This is the latest recevied weather packets stored in our database for station/object GBTWP-2. If no packets are shown the sender has not sent any weather packets the latest 10 day(s).
| Time | Temp. | Humidity | Pressure | Rain* | Wind** | Luminosity | Snow |
|---|---|---|---|---|---|---|---|
| 1777934402 | 23.33° C | 39% | 1001.5 hPa | 0 mm | - | 42 W/m² | - |
| 1777934102 | 23.33° C | 39% | 1001.5 hPa | 0 mm | - | 67 W/m² | - |
| 1777933801 | 23.33° C | 38% | 1001.9 hPa | 0 mm | - | 44 W/m² | - |
| 1777933502 | 23.89° C | 39% | 1001.8 hPa | 0 mm | - | 55 W/m² | - |
| 1777932602 | 23.89° C | 39% | 1001.9 hPa | 0 mm | - | 94 W/m² | - |
| 1777932301 | 23.33° C | 36% | 1001.8 hPa | 0 mm | - | 56 W/m² | - |
| 1777931701 | 24.44° C | 36% | 1002.1 hPa | 0 mm | - | 68 W/m² | - |
| 1777930802 | 23.89° C | 34% | 1002.4 hPa | 0 mm | - | 81 W/m² | - |
| 1777930502 | 23.89° C | 34% | 1002.3 hPa | 0 mm | - | 107 W/m² | - |
| 1777930202 | 23.33° C | 34% | 1002.3 hPa | 0 mm | - | 84 W/m² | - |
| 1777929902 | 23.33° C | 33% | 1002.3 hPa | 0 mm | - | 80 W/m² | - |
| 1777929601 | 23.33° C | 35% | 1002.2 hPa | 0 mm | - | 88 W/m² | - |
| 1777929302 | 23.33° C | 35% | 1002.4 hPa | 0 mm | - | 81 W/m² | - |
| 1777929002 | 23.89° C | 32% | 1002.4 hPa | 0 mm | - | 83 W/m² | - |
| 1777928702 | 23.89° C | 34% | 1002.3 hPa | 0 mm | - | 153 W/m² | - |
| 1777928402 | 23.89° C | 32% | 1002.1 hPa | 0 mm | - | 82 W/m² | - |
| 1777927501 | 23.89° C | 31% | 1002.3 hPa | 0 mm | - | 147 W/m² | - |
| 1777927202 | 24.44° C | 31% | 1002.4 hPa | 0 mm | - | 198 W/m² | - |
| 1777925702 | 24.44° C | 31% | 1002.7 hPa | 0 mm | - | 209 W/m² | - |
| 1777925102 | 24.44° C | 30% | 1002.6 hPa | 0 mm | - | 114 W/m² | - |
| 1777924502 | 23.89° C | 31% | 1002.7 hPa | 0 mm | - | 190 W/m² | - |
| 1777924201 | 24.44° C | 29% | 1002.7 hPa | 0 mm | - | 153 W/m² | - |
| 1777923902 | 24.44° C | 28% | 1002.9 hPa | 0 mm | - | 312 W/m² | - |
| 1777923002 | 23.89° C | 29% | 1003 hPa | 0 mm | - | 239 W/m² | - |
| 1777922402 | 23.89° C | 29% | 1003 hPa | 0 mm | - | 407 W/m² | - |
* Rain latest hour (hover to see other rain measurements)
** Current wind speed in m/s (hover to see current wind gust speed)